TimeHST,TemperatureF,Dew PointF,Humidity,Sea Level PressureIn,VisibilityMPH,Wind Direction,Wind SpeedMPH,Gust SpeedMPH,PrecipitationIn,Events,Conditions,WindDirDegrees,DateUTC
12:54 AM,64.9,61.0,87,30.12,10.0,NW,5.8,-,N/A,,Clear,310,2013-04-08 10:54:00
1:54 AM,68.0,64.9,90,30.11,10.0,NNE,8.1,-,N/A,,Clear,30,2013-04-08 11:54:00
2:54 AM,66.9,61.0,81,30.09,10.0,East,8.1,-,N/A,,Clear,100,2013-04-08 12:54:00
3:54 AM,68.0,64.0,87,30.08,10.0,NNE,9.2,-,N/A,,Clear,30,2013-04-08 13:54:00
4:54 AM,69.1,64.9,87,30.09,10.0,NNE,9.2,-,N/A,,Clear,30,2013-04-08 14:54:00
5:54 AM,66.9,64.0,90,30.10,10.0,Calm,Calm,-,N/A,,Clear,0,2013-04-08 15:54:00
6:54 AM,69.1,64.0,84,30.10,10.0,NE,9.2,-,N/A,,Partly Cloudy,40,2013-04-08 16:54:00
7:54 AM,72.0,64.0,76,30.12,10.0,Calm,Calm,-,N/A,,Clear,0,2013-04-08 17:54:00
8:54 AM,75.9,62.1,62,30.12,10.0,ENE,4.6,-,N/A,,Partly Cloudy,60,2013-04-08 18:54:00
9:54 AM,77.0,64.0,64,30.13,10.0,NE,11.5,-,N/A,,Scattered Clouds,50,2013-04-08 19:54:00
10:54 AM,77.0,64.9,66,30.12,10.0,NE,12.7,-,N/A,,Partly Cloudy,50,2013-04-08 20:54:00
11:54 AM,78.1,64.9,64,30.10,10.0,NE,10.4,21.9,N/A,,Scattered Clouds,40,2013-04-08 21:54:00
12:54 PM,78.1,64.9,64,30.07,10.0,NNE,12.7,19.6,0.00,,Scattered Clouds,30,2013-04-08 22:54:00
1:54 PM,78.1,66.0,66,30.05,10.0,NNE,13.8,19.6,N/A,,Scattered Clouds,20,2013-04-08 23:54:00
2:54 PM,75.0,66.0,73,30.02,10.0,NNE,15.0,21.9,N/A,,Scattered Clouds,20,2013-04-09 00:54:00
3:54 PM,73.9,64.9,73,30.01,10.0,NE,13.8,23.0,N/A,,Scattered Clouds,50,2013-04-09 01:54:00
4:54 PM,75.9,64.9,69,30.00,10.0,NE,12.7,21.9,N/A,,Scattered Clouds,50,2013-04-09 02:54:00
5:54 PM,73.0,64.9,76,30.02,10.0,NNE,5.8,-,N/A,,Scattered Clouds,30,2013-04-09 03:54:00
6:54 PM,71.1,64.9,81,30.05,10.0,NNE,8.1,-,N/A,,Clear,20,2013-04-09 04:54:00
7:54 PM,70.0,64.0,81,30.06,10.0,NNE,9.2,-,N/A,,Clear,30,2013-04-09 05:54:00
8:54 PM,70.0,63.0,78,30.08,10.0,NE,8.1,-,N/A,,Clear,40,2013-04-09 06:54:00
9:54 PM,69.1,63.0,81,30.10,10.0,NE,11.5,-,N/A,,Clear,50,2013-04-09 07:54:00
10:54 PM,69.1,63.0,81,30.09,10.0,NNE,6.9,-,N/A,,Clear,30,2013-04-09 08:54:00
11:54 PM,66.0,60.1,81,30.10,10.0,NE,5.8,-,N/A,,Clear,50,2013-04-09 09:54:00